DLH759A VOMM-EDDF

Flight info

Callsign DLH759A
Flight time N/A
Altitude 34000
Route DOLKI2B DOLKI Q8 AGELA W56 BBB G208 APANO G451 AAE Z8 VIKIT P628 RK G202 ZB L750 RANAH B449 INRAK A240 KRS B143 TUNEK A909 RODAR N644 LAGAS DCT SARPI UM10 GOKPA UL746 ODERO DCT OPT DCT SOKRU DCT ARSIN DCT SUBEN DCT AKINI T161 DEBHI DEBHI1C
Aircraft A343/H-SDE2E3FGHIJ3J5M1P2RWXYZ/LB1D1

Departure

Time 2026-04-20 02:52
Airport Chennai International Airport (VOMM)

Arrival

Time N/A
Airport Frankfurt Main Airport (EDDF)
Time Latitude Longitude Altitude Speed Heading
2026-04-20 02:32 12.98476 80.16635 51 ft 0 kts 162°
2026-04-20 02:43 12.98491 80.16631 47 ft 3 kts 162°
2026-04-20 02:43 12.98508 80.16625 48 ft 3 kts 162°
2026-04-20 02:44 12.98526 80.16619 47 ft 3 kts 162°
2026-04-20 02:44 12.98544 80.16613 46 ft 3 kts 138°
2026-04-20 02:44 12.98556 80.16597 47 ft 3 kts 94°
2026-04-20 02:44 12.98556 80.16596 47 ft 0 kts 90°
2026-04-20 02:47 12.98556 80.16605 46 ft 5 kts 90°
2026-04-20 02:47 12.98567 80.16676 48 ft 13 kts 62°
2026-04-20 02:47 12.98645 80.16756 49 ft 14 kts
2026-04-20 02:48 12.98738 80.16739 48 ft 13 kts 13°
2026-04-20 02:48 12.98796 80.16828 50 ft 22 kts 69°
2026-04-20 02:48 12.98871 80.17023 51 ft 33 kts 68°
2026-04-20 02:48 12.98954 80.17234 50 ft 31 kts 67°
2026-04-20 02:49 12.99033 80.17432 48 ft 29 kts 69°
2026-04-20 02:49 12.99104 80.17618 50 ft 27 kts 67°
2026-04-20 02:49 12.99208 80.17769 50 ft 25 kts 58°
2026-04-20 02:49 12.99281 80.17926 48 ft 24 kts 67°
2026-04-20 02:50 12.99341 80.18081 51 ft 25 kts 71°
2026-04-20 02:50 12.99369 80.18210 51 ft 30 kts 77°
2026-04-20 02:50 12.99519 80.18408 51 ft 24 kts 34°
2026-04-20 02:50 12.99558 80.18416 50 ft 1 kts 338°
2026-04-20 02:51 12.99567 80.18382 48 ft 10 kts 272°
2026-04-20 02:51 12.99528 80.18256 52 ft 35 kts 249°
2026-04-20 02:51 12.99380 80.17864 53 ft 82 kts 249°
2026-04-20 02:51 12.99130 80.17195 49 ft 121 kts 249°
2026-04-20 02:52 12.98782 80.16268 48 ft 154 kts 249°
2026-04-20 02:52 12.98334 80.15179 217 ft 171 kts 245°
2026-04-20 02:52 12.97828 80.14087 642 ft 171 kts 238°
2026-04-20 02:52 12.96909 80.13267 838 ft 177 kts 210°
2026-04-20 02:53 12.95721 80.13079 1335 ft 173 kts 172°
2026-04-20 02:53 12.95337 80.13132 1538 ft 171 kts 174°
2026-04-20 02:53 12.93862 80.12560 1884 ft 190 kts 231°
2026-04-20 02:53 12.93617 80.10637 2039 ft 232 kts 289°
2026-04-20 02:54 12.94669 80.09319 2326 ft 257 kts 327°
2026-04-20 02:54 12.96425 80.08840 2738 ft 272 kts
2026-04-20 02:54 12.98205 80.09479 3286 ft 277 kts 39°
2026-04-20 02:54 12.99459 80.10954 3933 ft 275 kts 57°
2026-04-20 02:55 13.00698 80.12461 4442 ft 281 kts 37°
2026-04-20 02:55 13.02507 80.13197 5026 ft 284 kts
2026-04-20 02:55 13.04492 80.13224 5591 ft 288 kts 360°
2026-04-20 02:55 13.06506 80.13238 5849 ft 289 kts
2026-04-20 02:56 13.08502 80.13425 5911 ft 288 kts
2026-04-20 02:56 13.10495 80.13674 5912 ft 288 kts
2026-04-20 02:56 13.12484 80.13943 5908 ft 288 kts
2026-04-20 02:56 13.14449 80.14218 5903 ft 288 kts 10°
2026-04-20 02:57 13.16434 80.14501 5902 ft 288 kts
2026-04-20 02:57 13.18421 80.14784 5902 ft 288 kts
2026-04-20 02:57 13.20424 80.14799 5894 ft 291 kts 349°
2026-04-20 02:57 13.22251 80.13941 5904 ft 291 kts 324°
2026-04-20 02:58 13.23830 80.12622 5893 ft 293 kts 320°
2026-04-20 02:58 13.25375 80.11262 5889 ft 293 kts 320°
2026-04-20 02:58 13.26935 80.09901 5891 ft 294 kts 320°
2026-04-20 02:58 13.28499 80.08541 5891 ft 294 kts 320°
2026-04-20 02:59 13.30054 80.07178 5921 ft 293 kts 318°
2026-04-20 02:59 13.31501 80.05714 6178 ft 291 kts 315°
2026-04-20 02:59 13.32920 80.04224 6657 ft 293 kts 316°
2026-04-20 02:59 13.34339 80.02752 7231 ft 294 kts 316°
2026-04-20 03:00 13.35789 80.01263 7806 ft 296 kts 317°
2026-04-20 03:00 13.37251 79.99771 8399 ft 297 kts 318°
2026-04-20 03:00 13.38726 79.98271 8968 ft 300 kts 319°
2026-04-20 03:00 13.40219 79.96755 9525 ft 303 kts 319°
2026-04-20 03:01 13.41723 79.95229 10069 ft 306 kts 319°
2026-04-20 03:01 13.42741 79.94197 10252 ft 315 kts 319°
2026-04-20 03:01 13.44871 79.92040 10564 ft 333 kts 318°
2026-04-20 03:01 13.46553 79.90335 10782 ft 346 kts 318°
2026-04-20 03:02 13.48303 79.88561 11000 ft 358 kts 318°
2026-04-20 03:02 13.50105 79.86732 11228 ft 370 kts 318°
2026-04-20 03:02 13.51957 79.84851 11554 ft 377 kts 318°
2026-04-20 03:02 13.53835 79.82943 11937 ft 382 kts 318°
2026-04-20 03:03 13.55739 79.81007 12342 ft 387 kts 317°
2026-04-20 03:03 13.57554 79.78957 12823 ft 390 kts 311°
2026-04-20 03:03 13.59237 79.76761 13306 ft 392 kts 310°
2026-04-20 03:03 13.60890 79.74550 13741 ft 395 kts 310°
2026-04-20 03:04 13.62574 79.72297 14125 ft 398 kts 310°
2026-04-20 03:04 13.64269 79.70032 14531 ft 401 kts 310°
2026-04-20 03:04 13.65979 79.67749 14963 ft 403 kts 310°
2026-04-20 03:04 13.67694 79.65459 15360 ft 406 kts 309°
2026-04-20 03:05 13.69426 79.63147 15764 ft 408 kts 309°
2026-04-20 03:05 13.71139 79.60859 16175 ft 411 kts 309°
2026-04-20 03:05 13.72323 79.59279 16458 ft 413 kts 309°
2026-04-20 03:05 13.74651 79.56169 17007 ft 416 kts 309°
2026-04-20 03:06 13.76422 79.53804 17433 ft 419 kts 309°
2026-04-20 03:06 13.78208 79.51417 17861 ft 422 kts 309°
2026-04-20 03:06 13.79397 79.49826 18141 ft 424 kts 309°
2026-04-20 03:06 13.81811 79.46598 18641 ft 427 kts 308°
2026-04-20 03:07 13.83627 79.44169 19030 ft 428 kts 308°
2026-04-20 03:07 13.85443 79.41740 19404 ft 430 kts 308°
2026-04-20 03:07 13.86653 79.40122 19620 ft 432 kts 308°
2026-04-20 03:07 13.89093 79.36855 20076 ft 435 kts 307°
2026-04-20 03:08 13.90944 79.34377 20441 ft 437 kts 307°
2026-04-20 03:08 13.92802 79.31887 20760 ft 439 kts 307°
2026-04-20 03:08 13.94661 79.29397 21178 ft 439 kts 306°
2026-04-20 03:08 13.96533 79.26888 21473 ft 443 kts 306°
2026-04-20 03:09 13.98418 79.24361 21837 ft 444 kts 306°
2026-04-20 03:09 14.00281 79.21862 22163 ft 446 kts 306°
2026-04-20 03:09 14.02196 79.19292 22504 ft 448 kts 306°
2026-04-20 03:09 14.04097 79.16742 22845 ft 450 kts 306°
2026-04-20 03:10 14.05983 79.14210 23165 ft 451 kts 306°
2026-04-20 03:10 14.07921 79.11608 23504 ft 453 kts 306°
2026-04-20 03:10 14.09821 79.09056 23778 ft 455 kts 306°
2026-04-20 03:10 14.11749 79.06466 24046 ft 456 kts 306°
2026-04-20 03:11 14.13689 79.03859 24277 ft 459 kts 305°
2026-04-20 03:11 14.15640 79.01236 24529 ft 461 kts 305°
2026-04-20 03:11 14.17590 78.98614 24838 ft 462 kts 305°
2026-04-20 03:12 14.23463 78.90711 25702 ft 465 kts 305°
2026-04-20 03:12 14.25428 78.88065 25972 ft 466 kts 305°
2026-04-20 03:12 14.27403 78.85405 26255 ft 467 kts 304°
2026-04-20 03:13 14.29384 78.82737 26536 ft 468 kts 304°
2026-04-20 03:13 14.31289 78.80059 26806 ft 467 kts 301°
2026-04-20 03:13 14.33051 78.77251 27104 ft 467 kts 299°
2026-04-20 03:13 14.34237 78.75334 27293 ft 468 kts 300°
2026-04-20 03:14 14.36579 78.71585 27623 ft 470 kts 300°
2026-04-20 03:14 14.38368 78.68751 27861 ft 471 kts 300°
2026-04-20 03:14 14.40162 78.65919 28111 ft 472 kts 300°
2026-04-20 03:14 14.41966 78.63080 28363 ft 473 kts 300°
2026-04-20 03:15 14.43750 78.60272 28593 ft 474 kts 300°
2026-04-20 03:15 14.46793 78.55489 28961 ft 476 kts 300°
2026-04-20 03:15 14.49229 78.51660 29255 ft 478 kts 300°
2026-04-20 03:16 14.50442 78.49752 29391 ft 479 kts 300°
2026-04-20 03:16 14.52248 78.46911 29611 ft 480 kts 300°
2026-04-20 03:16 14.52865 78.45942 29700 ft 480 kts 299°